Regional Weather Roundup
Issued by NWS Newport/Morehead, NC

Current Version | Previous Version | Graphics & Text | Print | Product List | Glossary Off
Versions: 1 2 3 4 5 6 7 8 9 10 11 12 13 14 15 16 17 18 19 20 21 22 23 24 25 26 27 28 29 30 31 32 33 34 35 36 37 38 39 40 41 42 43 44 45 46 47 48 49 50

000
ASUS42 KMHX 260610
RWRMHX
WEATHER ROUNDUP FOR EASTERN NORTH CAROLINA
NATIONAL WEATHER SERVICE NEWPORT/MOREHEAD CITY NC
200 AM EDT SAT JUL 26 2014

NOTE: "FAIR" INDICATES FEW OR NO CLOUDS BELOW 12,000 FEET
WITH NO SIGNIFICANT WEATHER AND/OR OBSTRUCTIONS TO VISIBILITY

NCZ015>017-031-032-045>047-102-103-260700-
NORTH COAST

CITY           SKY/WX    TMP DP  RH WIND       PRES   REMARKS
EDENTON        PTCLDY    70  63  78 S3        30.03S
ELIZABETH CITY CLEAR     66  61  84 CALM      30.02F
KITTY HAWK     CLEAR     74  61  63 SE5       30.01F
MANTEO         NOT AVBL

$$

NCZ045>047-081-094-103-104-260700-
CENTRAL COAST

CITY           SKY/WX    TMP DP  RH WIND       PRES   REMARKS
FRISCO         CLEAR     74  69  85 E7        30.02F
SWANQUARTER      N/A     72 N/A N/A E3        30.00S

$$

NCZ095-097-098-100-101-260700-
SOUTHERN COAST

CITY           SKY/WX    TMP DP  RH WIND       PRES   REMARKS
BEAUFORT       PTCLDY    78  73  84 E5        30.00F
CEDAR ISLAND     N/A     77 N/A N/A E10       30.06S
JACKSONVILLE   MOCLDY    76  72  87 E5        30.01F
NEWPORT        NOT AVBL
PINEY ISLAND   CLOUDY    79  74  84 E9        30.01F
WILMINGTON     CLEAR     74  72  93 CALM      30.01F


$$

NCZ011>013-027>030-043-044-078>080-089-090>093-098-260700-
COASTAL PLAIN

CITY           SKY/WX    TMP DP  RH WIND       PRES   REMARKS
AHOSKIE        CLEAR     66  64  93 CALM      30.04S
CLINTON        CLEAR     72  72 100 CALM      30.01F
ELIZABETHTOWN  CLEAR     73  73 100 CALM      30.01F FOG
GOLDSBORO      CLEAR     73  72  98 E3        30.00F
GREENVILLE     CLEAR     72  72 100 SE3       30.04F
HAVELOCK       MOCLDY    74  70  87 E3        30.03F
KENANSVILLE    CLEAR     70  68  95 CALM      30.02F FOG
KINSTON        CLEAR     74  71  92 CALM      30.02F
NEW BERN       CLEAR     73  70  90 CALM      30.03F
RICHLANDS      PTCLDY    72  70  94 CALM      30.01F
ROANOKE RAPIDS NOT AVBL
ROCKY MOUNT    FOG       70  69  97 CALM      30.02F VSB 1/2
WASHINGTON     CLEAR     70  68  94 CALM      30.03F
WHITEVILLE     CLOUDY    74  73  95 CALM      30.00F

$$

AMZ130-135-150-152-154-156-158-170-250-252-270-ANZ085-086-088-633-658-670-260700-
MARINE OBSERVATIONS

STATION/POSITION TIME  TEMP    WIND        PRES    WAVE   SWELL
                       AIR SEA DIR/SP/G            HT/PER HT/PER
                 (UTC) (F)     (DEG/KT/KT) (MB)    (FT/S) (FT/S)
CHESAPEAKE LIGHT NOT AVBL
BUOY 44014       0600   76 78  140/  8/ 10 1016.5    2/ 7   2/ 7
DUCK             0600   76 77              1015.9
2E DUCK          0500                        N/A     2/ 7
OREGON INLET     0600   74 80              1016.5
BUOY 44095       0600      77                N/A     3/ 7
20E OREGON INLET NOT AVBL
HATTERAS CG      0600   76 81              1016.9
DIAMOND BUOY     0600          VRB 12/ 14  1016.4    3/ 6   2/ 6
CAPE LOOKOUT     0500   79      90/ 12/ 13 1016.7
BEAUFORT LAB     0600   78 81              1016.0
30 SE NEW RIVER  0500   80 81  110/  2/  2 1016.9
5 SE WRIGHTSVILL 0500   77 81   90/  6/  8   N/A
BUOY 41002       0528   81 82  260/ 10/ 12 1018.8    4/ 7   3/ 7
BUOY 41004       0600   79 83  240/  8/ 12 1015.4    3/ 5   3/ 5

$$


USA.gov is the U.S. government's official web portal to all federal, state and local government web resources and services.